Weather observations for the past three days for
Rocksprings, Edwards County Airport
Metric (Imperial)
Date Time (cdt) Wind (kph) Vis. (km) Weather Sky Cond. Temperature (ºC) Relative Humidity Wind Chill (°C) Heat Index (°C) Pressure Precipitation (cm)
Air Dwpt 6 hour altimeter (cm) sea level (mb) 1 hr 3 hr 6 hr
Max. Min.
06 02:35 SE 19 12.87 Overcast OVC006 22 21 94% 75.82 0.0
06 02:15 SE 19 G 28 14.48 Mostly Cloudy BKN006 22 21 94% 75.82 0.0
06 01:55 SE 15 16.09 Fair CLR 22 20 88% 75.82 0.0
06 01:35 SE 15 16.09 Fair CLR 22 20 88% 75.84 0.0
06 01:15 SE 9 16.09 Fair CLR 21 20 94% 75.84 0.0
06 01:00 SE 7 16.09 Fair CLR 21 20 94% 75.84 0.0
06 00:15 SE 11 16.09 Fair CLR 22 20 88% 75.87 0.0
05 23:55 SE 11 16.09 Fair CLR 22 19 83% 75.87 0.0
05 23:35 SE 11 16.09 Fair CLR 22 19 83% 75.87 0.0
05 23:15 SE 7 16.09 Fair CLR 22 19 83% 75.87 0.0
05 22:55 E 7 16.09 Fair CLR 23 19 78% 75.84 0.0
05 22:35 E 9 16.09 Fair CLR 23 19 78% 75.84 0.0
05 22:15 E 11 16.09 Fair CLR 23 19 78% 75.79 0.0
05 21:55 SE 9 16.09 Fair CLR 23 19 78% 75.79 0.0
05 21:35 SE 11 16.09 Fair CLR 23 20 83% 75.77 0.0
05 21:15 SE 11 16.09 Fair CLR 23 20 83% 75.77 0.0
05 20:55 SE 11 16.09 Fair CLR 24 20 78% 24 75.74 0.0
05 20:15 SE 15 16.09 Fair CLR 25 20 74% 26 75.69 0.0
05 19:55 SE 13 16.09 Fair CLR 26 19 65% 27 75.67 0.0
05 19:35 SE 15 16.09 Fair CLR 27 19 62% 28 75.67 0.0
05 19:15 SE 15 16.09 Fair CLR 28 19 58% 29 75.67 0.0
05 18:55 SE 13 16.09 Fair CLR 28 20 62% 30 75.67 0.0
05 18:35 SE 11 16.09 Fair CLR 28 19 58% 29 75.67 0.0
05 18:15 SE 13 16.09 Fair CLR 28 20 62% 30 75.69 0.0
05 17:55 SE 15 16.09 Fair CLR 29 20 58% 31 75.67 0.0
05 17:35 S 7 16.09 Fair CLR 29 19 55% 30 75.67 0.0
05 17:15 S 7 16.09 Fair CLR 30 17 46% 30 75.67 0.0
05 16:55 Calm 16.09 Fair CLR 31 16 40% 31 75.69 0.0
05 16:35 Calm 16.09 Fair CLR 30 16 43% 30 75.72 0.0
05 16:15 Calm 16.09 Fair CLR 30 16 43% 30 75.72 0.0
05 15:55 Calm 16.09 Fair CLR 30 16 43% 30 75.74 0.0
05 15:35 W 11 16.09 Fair CLR 30 16 43% 30 75.74 0.0
05 15:15 NW 9 16.09 Fair CLR 30 15 40% 30 75.77 0.0
05 14:55 Vrbl 6 16.09 Fair CLR 30 16 43% 30 75.77 0.0
05 14:35 Calm 16.09 Fair CLR 29 16 45% 29 75.79 0.0
05 14:15 Calm 16.09 Fair CLR 28 15 45% 28 75.82 0.0
05 13:55 S 7 16.09 Fair CLR 28 18 55% 29 75.82 0.0
05 13:35 Calm 16.09 Fair CLR 27 19 62% 28 75.84 0.0
05 13:15 Vrbl 7 16.09 Fair CLR 27 19 62% 28 75.87 0.0
05 12:55 Vrbl 7 16.09 Fair CLR 26 19 65% 27 75.87 0.0
05 12:35 Vrbl 11 16.09 Fair CLR 26 19 65% 27 75.9 0.0
05 12:15 Calm 16.09 NULL NULL 25 19 69% 26 75.9 0.0
05 11:55 Vrbl 7 16.09 Partly Cloudy SCT015 24 19 74% 25 75.92 0.0
05 11:35 Vrbl 7 G 19 16.09 Mostly Cloudy BKN014 24 19 74% 25 75.92 0.0
05 11:15 Vrbl 9 G 19 16.09 Overcast OVC012 23 19 78% 75.92 0.0
Date Time (cdt) Wind (kph) Vis. (km) Weather Sky Cond. Air Dwpt Max. Min. Relative Humidity Wind Chill (°C) Heat Index (°C) altimeter (cm) sea level (mb) 1 hr 3 hr 6 hr
6 hour
Temperature (ºC) Pressure Precipitation (cm)